カタログに戻る

LEMUR 2 VALHALLA

運用中気象SSO
NORAD 58900·PAYLOAD·🇺🇸 United States

打ち上げ Jan 31, 2024 から Rocket Lab Launch Complex 1

Loading…

次のパス (今後24時間)

TLE

最新Source: Space-Track

元期: Sep 14, 2026, 00:59 UTC

1 58900U 24022B   26257.04145064  .00013995  00000-0  32882-3 0  9991
2 58900  97.3995 108.2205 0009513 143.9427 216.2464 15.42079550145959

AllMySatでLEMUR 2 VALHALLAをリアルタイム追跡

Download on the App Store